Year,Month,Day,Hour,Minute,Value (Times are PST for windspeed in km/hr)
2008,01,01,00,00,3.40
2008,01,01,00,01,3.80
2008,01,01,00,02,3.90
2008,01,01,00,03,4.60
2008,01,01,00,04,6.40
2008,01,01,00,05,6.70
2008,01,01,00,06,9.00
2008,01,01,00,07,6.10
2008,01,01,00,08,5.20
2008,01,01,00,09,6.80
2008,01,01,00,10,6.80
2008,01,01,00,11,5.20
2008,01,01,00,12,5.30
2008,01,01,00,13,3.90
2008,01,01,00,14,4.80
2008,01,01,00,15,5.60
2008,01,01,00,16,4.60
2008,01,01,00,17,3.50
2008,01,01,00,18,4.50
2008,01,01,00,19,6.80
2008,01,01,00,20,5.40
2008,01,01,00,21,4.10
2008,01,01,00,22,5.50
2008,01,01,00,23,7.90
2008,01,01,00,24,4.30
2008,01,01,00,25,7.50
2008,01,01,00,26,6.00
2008,01,01,00,27,6.70
2008,01,01,00,28,4.80
2008,01,01,00,29,3.40
2008,01,01,00,30,4.60
2008,01,01,00,31,5.30
2008,01,01,00,32,7.50
2008,01,01,00,33,8.00
2008,01,01,00,34,5.50
2008,01,01,00,35,5.10
2008,01,01,00,36,4.20
2008,01,01,00,37,3.20
2008,01,01,00,38,6.00
2008,01,01,00,39,4.80
2008,01,01,00,40,6.00
2008,01,01,00,41,6.00
2008,01,01,00,42,5.10
2008,01,01,00,43,6.90
2008,01,01,00,44,7.70
2008,01,01,00,45,8.10
2008,01,01,00,46,7.40
2008,01,01,00,47,5.60
2008,01,01,00,48,7.90
2008,01,01,00,49,5.60
2008,01,01,00,50,7.70
2008,01,01,00,51,8.60
2008,01,01,00,52,7.10
2008,01,01,00,53,7.30
2008,01,01,00,54,8.00
2008,01,01,00,55,8.50
2008,01,01,00,56,6.60
2008,01,01,00,57,8.60
2008,01,01,00,58,6.40
2008,01,01,00,59,6.70
2008,01,01,01,00,9.10
2008,01,01,01,01,6.90
2008,01,01,01,02,8.00
2008,01,01,01,03,6.70
2008,01,01,01,04,5.50
2008,01,01,01,05,5.90
2008,01,01,01,06,4.60
2008,01,01,01,07,6.40
2008,01,01,01,08,9.20
2008,01,01,01,09,6.00
2008,01,01,01,10,5.30
2008,01,01,01,11,5.20
2008,01,01,01,12,5.30
2008,01,01,01,13,7.20
2008,01,01,01,14,6.20
2008,01,01,01,15,8.20
2008,01,01,01,16,8.20
2008,01,01,01,17,6.30
2008,01,01,01,18,6.40
2008,01,01,01,19,4.90
2008,01,01,01,20,3.60
2008,01,01,01,21,4.90
2008,01,01,01,22,4.30
2008,01,01,01,23,6.80
2008,01,01,01,24,4.70
2008,01,01,01,25,6.30
2008,01,01,01,26,5.50
2008,01,01,01,27,4.20
2008,01,01,01,28,7.30
2008,01,01,01,29,6.40
2008,01,01,01,30,7.60
2008,01,01,01,31,9.70
2008,01,01,01,32,9.40
2008,01,01,01,33,4.80
2008,01,01,01,34,6.10
2008,01,01,01,35,7.00
2008,01,01,01,36,3.50
2008,01,01,01,37,3.50
2008,01,01,01,38,3.80
2008,01,01,01,39,3.20
2008,01,01,01,40,6.30
2008,01,01,01,41,8.80
2008,01,01,01,42,9.30
2008,01,01,01,43,5.90
2008,01,01,01,44,4.70
2008,01,01,01,45,6.20
2008,01,01,01,46,5.30
2008,01,01,01,47,5.10
2008,01,01,01,48,6.10
2008,01,01,01,49,7.40
2008,01,01,01,50,6.30
2008,01,01,01,51,6.00
2008,01,01,01,52,5.70
2008,01,01,01,53,6.20
2008,01,01,01,54,5.00
2008,01,01,01,55,10.50
2008,01,01,01,56,10.50
2008,01,01,01,57,9.50
2008,01,01,01,58,11.20
2008,01,01,01,59,7.20
2008,01,01,02,00,6.40
2008,01,01,02,01,6.30
2008,01,01,02,02,5.20
2008,01,01,02,03,4.70
2008,01,01,02,04,3.20
2008,01,01,02,05,3.50
2008,01,01,02,06,6.40
2008,01,01,02,07,4.20
2008,01,01,02,08,5.30
2008,01,01,02,09,5.20
2008,01,01,02,10,5.50
2008,01,01,02,11,6.30
2008,01,01,02,12,5.10
2008,01,01,02,13,5.20
2008,01,01,02,14,7.30
2008,01,01,02,15,8.00
2008,01,01,02,16,8.00
2008,01,01,02,17,5.50
2008,01,01,02,18,5.60
2008,01,01,02,19,4.40
2008,01,01,02,20,5.80
2008,01,01,02,21,8.00
2008,01,01,02,22,9.10
2008,01,01,02,23,6.30
2008,01,01,02,24,5.60
2008,01,01,02,25,6.30
2008,01,01,02,26,6.20
2008,01,01,02,27,4.40
2008,01,01,02,28,5.90
2008,01,01,02,29,4.80
2008,01,01,02,30,4.90
2008,01,01,02,31,4.10
2008,01,01,02,32,4.50
2008,01,01,02,33,4.80
2008,01,01,02,34,5.90
2008,01,01,02,35,4.60
2008,01,01,02,36,4.20
2008,01,01,02,37,5.40
2008,01,01,02,38,3.90
2008,01,01,02,39,5.70
2008,01,01,02,40,4.40
2008,01,01,02,41,7.60
2008,01,01,02,42,7.20
2008,01,01,02,43,7.30
2008,01,01,02,44,8.60
2008,01,01,02,45,8.90
2008,01,01,02,46,10.30
2008,01,01,02,47,5.90
2008,01,01,02,48,5.50
2008,01,01,02,49,5.00
2008,01,01,02,50,5.60
2008,01,01,02,51,4.30
2008,01,01,02,52,5.60
2008,01,01,02,53,2.80
2008,01,01,02,54,4.80
2008,01,01,02,55,7.90
2008,01,01,02,56,6.50
2008,01,01,02,57,3.90
2008,01,01,02,58,4.90
2008,01,01,02,59,5.10
2008,01,01,03,00,6.40
2008,01,01,03,01,6.30
2008,01,01,03,02,5.50
2008,01,01,03,03,5.50
2008,01,01,03,04,6.80
2008,01,01,03,05,5.60
2008,01,01,03,06,7.30
2008,01,01,03,07,9.10
2008,01,01,03,08,7.30
2008,01,01,03,09,5.10
2008,01,01,03,10,7.10
2008,01,01,03,11,6.80
2008,01,01,03,12,5.60
2008,01,01,03,13,3.80
2008,01,01,03,14,4.80
2008,01,01,03,15,2.80
2008,01,01,03,16,3.90
2008,01,01,03,17,4.80
2008,01,01,03,18,3.70
2008,01,01,03,19,4.80
2008,01,01,03,20,3.40
2008,01,01,03,21,5.10
2008,01,01,03,22,4.60
2008,01,01,03,23,6.90
2008,01,01,03,24,10.10
2008,01,01,03,25,6.70
2008,01,01,03,26,4.70
2008,01,01,03,27,5.90
2008,01,01,03,28,7.20
2008,01,01,03,29,6.80
2008,01,01,03,30,4.60
2008,01,01,03,31,4.50
2008,01,01,03,32,3.90
2008,01,01,03,33,4.90
2008,01,01,03,34,3.10
2008,01,01,03,35,3.10
2008,01,01,03,36,6.00
2008,01,01,03,37,4.90
2008,01,01,03,38,9.50
2008,01,01,03,39,5.90
2008,01,01,03,40,6.00
2008,01,01,03,41,7.00
2008,01,01,03,42,5.90
2008,01,01,03,43,6.60
2008,01,01,03,44,7.80
2008,01,01,03,45,12.20
2008,01,01,03,46,11.40
2008,01,01,03,47,9.50
2008,01,01,03,48,12.30
2008,01,01,03,49,9.10
2008,01,01,03,50,8.80
2008,01,01,03,51,6.20
2008,01,01,03,52,9.00
2008,01,01,03,53,9.30
2008,01,01,03,54,10.80
2008,01,01,03,55,6.80
2008,01,01,03,56,11.30
2008,01,01,03,57,8.20
2008,01,01,03,58,4.90
2008,01,01,03,59,11.40
2008,01,01,04,00,5.60
2008,01,01,04,01,4.40
2008,01,01,04,02,4.40
2008,01,01,04,03,11.40
2008,01,01,04,04,9.60
2008,01,01,04,05,4.70
2008,01,01,04,06,6.50
2008,01,01,04,07,5.70
2008,01,01,04,08,7.20
2008,01,01,04,09,6.80
2008,01,01,04,10,8.00
2008,01,01,04,11,7.60
2008,01,01,04,12,7.80
2008,01,01,04,13,9.30
2008,01,01,04,14,8.50
2008,01,01,04,15,6.10
2008,01,01,04,16,6.70
2008,01,01,04,17,6.10
2008,01,01,04,18,4.40
2008,01,01,04,19,4.70
2008,01,01,04,20,4.60
2008,01,01,04,21,4.80
2008,01,01,04,22,4.90
2008,01,01,04,23,6.10
2008,01,01,04,24,5.10
2008,01,01,04,25,4.80
2008,01,01,04,26,7.20
2008,01,01,04,27,11.10
2008,01,01,04,28,10.90
2008,01,01,04,29,5.90
2008,01,01,04,30,5.90
2008,01,01,04,31,6.20
2008,01,01,04,32,6.90
2008,01,01,04,33,8.00
2008,01,01,04,34,6.00
2008,01,01,04,35,4.40
2008,01,01,04,36,7.10
2008,01,01,04,37,7.20
2008,01,01,04,38,8.60
2008,01,01,04,39,6.50
2008,01,01,04,40,11.60
2008,01,01,04,41,10.90
2008,01,01,04,42,8.90
2008,01,01,04,43,9.10
2008,01,01,04,44,10.70
2008,01,01,04,45,8.00
2008,01,01,04,46,4.50
2008,01,01,04,47,5.80
2008,01,01,04,48,10.70
2008,01,01,04,49,4.10
2008,01,01,04,50,16.30
2008,01,01,04,51,10.80
2008,01,01,04,52,6.80
2008,01,01,04,53,5.90
2008,01,01,04,54,8.30
2008,01,01,04,55,4.40
2008,01,01,04,56,5.60
2008,01,01,04,57,4.90
2008,01,01,04,58,7.70
2008,01,01,04,59,5.50
2008,01,01,05,00,8.80
2008,01,01,05,01,10.80
2008,01,01,05,02,8.00
2008,01,01,05,03,6.60
2008,01,01,05,04,8.90
2008,01,01,05,05,10.00
2008,01,01,05,06,10.20
2008,01,01,05,07,10.50
2008,01,01,05,08,13.70
2008,01,01,05,09,12.70
2008,01,01,05,10,11.50
2008,01,01,05,11,12.00
2008,01,01,05,12,8.50
2008,01,01,05,13,5.80
2008,01,01,05,14,12.20
2008,01,01,05,15,13.90
2008,01,01,05,16,9.80
2008,01,01,05,17,10.20
2008,01,01,05,18,7.20
2008,01,01,05,19,9.10
2008,01,01,05,20,8.00
2008,01,01,05,21,11.70
2008,01,01,05,22,13.50
2008,01,01,05,23,11.60
2008,01,01,05,24,9.60
2008,01,01,05,25,12.10
2008,01,01,05,26,9.90
2008,01,01,05,27,7.40
2008,01,01,05,28,8.80
2008,01,01,05,29,6.90
2008,01,01,05,30,5.70
2008,01,01,05,31,5.30
2008,01,01,05,32,6.30
2008,01,01,05,33,4.60
2008,01,01,05,34,6.30
2008,01,01,05,35,7.10
2008,01,01,05,36,7.40
2008,01,01,05,37,5.90
2008,01,01,05,38,5.10
2008,01,01,05,39,5.50
2008,01,01,05,40,7.30
2008,01,01,05,41,8.50
2008,01,01,05,42,6.70
2008,01,01,05,43,5.50
2008,01,01,05,44,7.00
2008,01,01,05,45,8.10
2008,01,01,05,46,7.80
2008,01,01,05,47,9.20
2008,01,01,05,48,9.30
2008,01,01,05,49,4.50
2008,01,01,05,50,7.30
2008,01,01,05,51,7.70
2008,01,01,05,52,6.80
2008,01,01,05,53,11.60
2008,01,01,05,54,9.90
2008,01,01,05,55,6.40
2008,01,01,05,56,9.10
2008,01,01,05,57,13.80
2008,01,01,05,58,14.30
2008,01,01,05,59,17.80
2008,01,01,06,00,16.40
2008,01,01,06,01,12.90
2008,01,01,06,02,19.60
2008,01,01,06,03,15.90
2008,01,01,06,04,15.30
2008,01,01,06,05,12.60
2008,01,01,06,06,12.80
2008,01,01,06,07,6.20
2008,01,01,06,08,7.20
2008,01,01,06,09,6.10
2008,01,01,06,10,7.50
2008,01,01,06,11,7.00
2008,01,01,06,12,4.80
2008,01,01,06,13,7.10
2008,01,01,06,14,7.50
2008,01,01,06,15,7.20
2008,01,01,06,16,7.50
2008,01,01,06,17,7.60
2008,01,01,06,18,7.50
2008,01,01,06,19,5.70
2008,01,01,06,20,6.90
2008,01,01,06,21,8.90
2008,01,01,06,22,6.90
2008,01,01,06,23,11.20
2008,01,01,06,24,11.00
2008,01,01,06,25,14.90
2008,01,01,06,26,14.60
2008,01,01,06,27,9.80
2008,01,01,06,28,11.50
2008,01,01,06,29,10.40
2008,01,01,06,30,9.60
2008,01,01,06,31,3.90
2008,01,01,06,32,4.70
2008,01,01,06,33,4.50
2008,01,01,06,34,5.30
2008,01,01,06,35,6.00
2008,01,01,06,36,8.70
2008,01,01,06,37,5.50
2008,01,01,06,38,6.70
2008,01,01,06,39,6.80
2008,01,01,06,40,5.10
2008,01,01,06,41,5.00
2008,01,01,06,42,6.00
2008,01,01,06,43,8.40
2008,01,01,06,44,6.70
2008,01,01,06,45,8.60
2008,01,01,06,46,5.20
2008,01,01,06,47,5.80
2008,01,01,06,48,10.70
2008,01,01,06,49,9.30
2008,01,01,06,50,14.60
2008,01,01,06,51,11.40
2008,01,01,06,52,11.90
2008,01,01,06,53,9.50
2008,01,01,06,54,12.60
2008,01,01,06,55,7.40
2008,01,01,06,56,11.80
2008,01,01,06,57,7.70
2008,01,01,06,58,9.70
2008,01,01,06,59,6.30
2008,01,01,07,00,7.00
2008,01,01,07,01,8.00
2008,01,01,07,02,7.20
2008,01,01,07,03,6.00
2008,01,01,07,04,8.70
2008,01,01,07,05,9.60
2008,01,01,07,06,9.40
2008,01,01,07,07,5.90
2008,01,01,07,08,6.40
2008,01,01,07,09,7.60
2008,01,01,07,10,16.60
2008,01,01,07,11,8.60
2008,01,01,07,12,11.40
2008,01,01,07,13,15.10
2008,01,01,07,14,11.50
2008,01,01,07,15,9.10
2008,01,01,07,16,8.50
2008,01,01,07,17,11.10
2008,01,01,07,18,5.90
2008,01,01,07,19,4.40
2008,01,01,07,20,7.70
2008,01,01,07,21,5.50
2008,01,01,07,22,7.40
2008,01,01,07,23,5.10
2008,01,01,07,24,5.80
2008,01,01,07,25,5.60
2008,01,01,07,26,8.80
2008,01,01,07,27,9.20
2008,01,01,07,28,10.90
2008,01,01,07,29,9.80
2008,01,01,07,30,9.20
2008,01,01,07,31,8.90
2008,01,01,07,32,7.30
2008,01,01,07,33,9.00
2008,01,01,07,34,8.50
2008,01,01,07,35,8.70
2008,01,01,07,36,9.30
2008,01,01,07,37,11.30
2008,01,01,07,38,10.90
2008,01,01,07,39,11.50
2008,01,01,07,40,10.90
2008,01,01,07,41,10.20
2008,01,01,07,42,11.80
2008,01,01,07,43,9.10
2008,01,01,07,44,8.00
2008,01,01,07,45,11.40
2008,01,01,07,46,5.70
2008,01,01,07,47,9.30
2008,01,01,07,48,14.10
2008,01,01,07,49,11.60
2008,01,01,07,50,11.50
2008,01,01,07,51,13.10
2008,01,01,07,52,14.20
2008,01,01,07,53,9.60
2008,01,01,07,54,16.30
2008,01,01,07,55,14.20
2008,01,01,07,56,12.00
2008,01,01,07,57,9.90
2008,01,01,07,58,6.50
2008,01,01,07,59,6.40
2008,01,01,08,00,7.60
2008,01,01,08,01,9.20
2008,01,01,08,02,8.70
2008,01,01,08,03,12.00
2008,01,01,08,04,8.00
2008,01,01,08,05,6.30
2008,01,01,08,06,12.60
2008,01,01,08,07,11.90
2008,01,01,08,08,13.50
2008,01,01,08,09,12.50
2008,01,01,08,10,12.20
2008,01,01,08,11,11.10
2008,01,01,08,12,12.70
2008,01,01,08,13,16.00
2008,01,01,08,14,16.70
2008,01,01,08,15,13.80
2008,01,01,08,16,8.00
2008,01,01,08,17,7.90
2008,01,01,08,18,9.90
2008,01,01,08,19,5.90
2008,01,01,08,20,7.80
2008,01,01,08,21,8.80
2008,01,01,08,22,5.50
2008,01,01,08,23,7.00
2008,01,01,08,24,11.00
2008,01,01,08,25,8.40
2008,01,01,08,26,7.20
2008,01,01,08,27,6.60
2008,01,01,08,28,5.30
2008,01,01,08,29,4.30
2008,01,01,08,30,7.40
2008,01,01,08,31,6.30
2008,01,01,08,32,7.40
2008,01,01,08,33,6.00
2008,01,01,08,34,8.50
2008,01,01,08,35,7.40
2008,01,01,08,36,9.30
2008,01,01,08,37,9.40
2008,01,01,08,38,11.80
2008,01,01,08,39,8.00
2008,01,01,08,40,13.20
2008,01,01,08,41,11.10
2008,01,01,08,42,8.90
2008,01,01,08,43,8.10
2008,01,01,08,44,7.70
2008,01,01,08,45,6.40
2008,01,01,08,46,6.10
2008,01,01,08,47,7.40
2008,01,01,08,48,8.60
2008,01,01,08,49,5.20
2008,01,01,08,50,9.00
2008,01,01,08,51,4.70
2008,01,01,08,52,6.00
2008,01,01,08,53,10.60
2008,01,01,08,54,14.60
2008,01,01,08,55,10.10
2008,01,01,08,56,8.60
2008,01,01,08,57,7.60
2008,01,01,08,58,9.30
2008,01,01,08,59,9.00
2008,01,01,09,00,10.80
2008,01,01,09,01,10.10
2008,01,01,09,02,6.60
2008,01,01,09,03,13.40
2008,01,01,09,04,7.30
2008,01,01,09,05,11.20
2008,01,01,09,06,8.10
2008,01,01,09,07,8.10
2008,01,01,09,08,7.90
2008,01,01,09,09,10.40
2008,01,01,09,10,6.70
2008,01,01,09,11,7.00
2008,01,01,09,12,9.30
2008,01,01,09,13,8.60
2008,01,01,09,14,11.40
2008,01,01,09,15,11.30
2008,01,01,09,16,8.80
2008,01,01,09,17,8.10
2008,01,01,09,18,10.90
2008,01,01,09,19,7.60
2008,01,01,09,20,7.70
2008,01,01,09,21,9.50
2008,01,01,09,22,9.30
2008,01,01,09,23,6.10
2008,01,01,09,24,6.40
2008,01,01,09,25,10.10
2008,01,01,09,26,12.40
2008,01,01,09,27,8.30
2008,01,01,09,28,5.20
2008,01,01,09,29,5.50
2008,01,01,09,30,7.70
2008,01,01,09,31,8.40
2008,01,01,09,32,6.80
2008,01,01,09,33,10.20
2008,01,01,09,34,8.90
2008,01,01,09,35,8.80
2008,01,01,09,36,7.90
2008,01,01,09,37,9.70
2008,01,01,09,38,8.50
2008,01,01,09,39,7.60
2008,01,01,09,40,11.00
2008,01,01,09,41,15.00
2008,01,01,09,42,8.10
2008,01,01,09,43,10.10
2008,01,01,09,44,10.20
2008,01,01,09,45,9.10
2008,01,01,09,46,8.60
2008,01,01,09,47,8.60
2008,01,01,09,48,10.50
2008,01,01,09,49,9.00
2008,01,01,09,50,9.70
2008,01,01,09,51,10.80
2008,01,01,09,52,8.60
2008,01,01,09,53,7.70
2008,01,01,09,54,9.90
2008,01,01,09,55,8.00
2008,01,01,09,56,17.10
2008,01,01,09,57,7.20
2008,01,01,09,58,8.10
2008,01,01,09,59,9.50
2008,01,01,10,00,10.10
2008,01,01,10,01,10.60
2008,01,01,10,02,11.00
2008,01,01,10,03,7.60
2008,01,01,10,04,9.00
2008,01,01,10,05,17.10
2008,01,01,10,06,8.40
2008,01,01,10,07,14.40
2008,01,01,10,08,5.60
2008,01,01,10,09,4.80
2008,01,01,10,10,8.00
2008,01,01,10,11,10.30
2008,01,01,10,12,5.70
2008,01,01,10,13,8.20
2008,01,01,10,14,7.40
2008,01,01,10,15,7.30
2008,01,01,10,16,8.20
2008,01,01,10,17,8.10
2008,01,01,10,18,7.70
2008,01,01,10,19,12.50
2008,01,01,10,20,14.40
2008,01,01,10,21,10.90
2008,01,01,10,22,6.00
2008,01,01,10,23,7.80
2008,01,01,10,24,15.80
2008,01,01,10,25,14.10
2008,01,01,10,26,11.50
2008,01,01,10,27,13.80
2008,01,01,10,28,12.60
2008,01,01,10,29,13.60
2008,01,01,10,30,8.40
2008,01,01,10,31,9.30
2008,01,01,10,32,8.80
2008,01,01,10,33,9.10
2008,01,01,10,34,22.80
2008,01,01,10,35,16.70
2008,01,01,10,36,7.90
2008,01,01,10,37,18.20
2008,01,01,10,38,6.40
2008,01,01,10,39,7.40
2008,01,01,10,40,10.70
2008,01,01,10,41,7.10
2008,01,01,10,42,13.30
2008,01,01,10,43,19.70
2008,01,01,10,44,17.50
2008,01,01,10,45,16.20
2008,01,01,10,46,8.40
2008,01,01,10,47,11.80
2008,01,01,10,48,13.40
2008,01,01,10,49,7.40
2008,01,01,10,50,6.40
2008,01,01,10,51,12.60
2008,01,01,10,52,10.50
2008,01,01,10,53,8.90
2008,01,01,10,54,9.70
2008,01,01,10,55,11.90
2008,01,01,10,56,12.40
2008,01,01,10,57,18.80
2008,01,01,10,58,18.10
2008,01,01,10,59,19.50
2008,01,01,11,00,12.20
2008,01,01,11,01,12.80
2008,01,01,11,02,12.60
2008,01,01,11,03,18.70
2008,01,01,11,04,8.00
2008,01,01,11,05,6.50
2008,01,01,11,06,9.60
2008,01,01,11,07,17.50
2008,01,01,11,08,7.50
2008,01,01,11,09,7.50
2008,01,01,11,10,6.40
2008,01,01,11,11,14.00
2008,01,01,11,12,12.10
2008,01,01,11,13,13.00
2008,01,01,11,14,9.60
2008,01,01,11,15,9.30
2008,01,01,11,16,6.40
2008,01,01,11,17,10.50
2008,01,01,11,18,12.60
2008,01,01,11,19,15.00
2008,01,01,11,20,9.30
2008,01,01,11,21,7.50
2008,01,01,11,22,7.20
2008,01,01,11,23,9.80
2008,01,01,11,24,10.90
2008,01,01,11,25,17.00
2008,01,01,11,26,11.20
2008,01,01,11,27,8.50
2008,01,01,11,28,13.90
2008,01,01,11,29,8.20
2008,01,01,11,30,7.30
2008,01,01,11,31,8.10
2008,01,01,11,32,19.30
2008,01,01,11,33,12.20
2008,01,01,11,34,15.20
2008,01,01,11,35,20.40
2008,01,01,11,36,13.40
2008,01,01,11,37,8.80
2008,01,01,11,38,14.20
2008,01,01,11,39,9.10
2008,01,01,11,40,8.20
2008,01,01,11,41,13.40
2008,01,01,11,42,15.90
2008,01,01,11,43,12.20
2008,01,01,11,44,14.50
2008,01,01,11,45,15.90
2008,01,01,11,46,14.00
2008,01,01,11,47,13.70
2008,01,01,11,48,14.00
2008,01,01,11,49,24.00
2008,01,01,11,50,10.60
2008,01,01,11,51,12.90
2008,01,01,11,52,14.30
2008,01,01,11,53,17.70
2008,01,01,11,54,16.40
2008,01,01,11,55,10.70
2008,01,01,11,56,19.40
2008,01,01,11,57,16.30
2008,01,01,11,58,13.20
2008,01,01,11,59,19.20
2008,01,01,12,00,13.60
2008,01,01,12,01,15.00
2008,01,01,12,02,15.60
2008,01,01,12,03,13.90
2008,01,01,12,04,14.80
2008,01,01,12,05,13.70
2008,01,01,12,06,11.00
2008,01,01,12,07,13.80
2008,01,01,12,08,12.00
2008,01,01,12,09,10.10
2008,01,01,12,10,17.00
2008,01,01,12,11,12.30
2008,01,01,12,12,19.60
2008,01,01,12,13,14.40
2008,01,01,12,14,20.20
2008,01,01,12,15,16.70
2008,01,01,12,16,22.50
2008,01,01,12,17,15.70
2008,01,01,12,18,12.80
2008,01,01,12,19,15.00
2008,01,01,12,20,22.20
2008,01,01,12,21,18.70
2008,01,01,12,22,11.20
2008,01,01,12,23,14.80
2008,01,01,12,24,15.40
2008,01,01,12,25,21.30
2008,01,01,12,26,18.90
2008,01,01,12,27,14.60
2008,01,01,12,28,11.30
2008,01,01,12,29,23.70
2008,01,01,12,30,14.20
2008,01,01,12,31,13.20
2008,01,01,12,32,24.70
2008,01,01,12,33,15.20
2008,01,01,12,34,15.00
2008,01,01,12,35,11.70
2008,01,01,12,36,10.90
2008,01,01,12,37,17.30
2008,01,01,12,38,15.40
2008,01,01,12,39,17.10
2008,01,01,12,40,14.40
2008,01,01,12,41,13.10
2008,01,01,12,42,21.30
2008,01,01,12,43,14.00
2008,01,01,12,44,11.60
2008,01,01,12,45,18.30
2008,01,01,12,46,14.10
2008,01,01,12,47,14.20
2008,01,01,12,48,11.80
2008,01,01,12,49,15.40
2008,01,01,12,50,19.20
2008,01,01,12,51,18.00
2008,01,01,12,52,14.90
2008,01,01,12,53,12.20
2008,01,01,12,54,18.00
2008,01,01,12,55,19.90
2008,01,01,12,56,17.20
2008,01,01,12,57,14.20
2008,01,01,12,58,13.90
2008,01,01,12,59,13.40
2008,01,01,13,00,11.50
2008,01,01,13,01,11.80
2008,01,01,13,02,16.10
2008,01,01,13,03,13.40
2008,01,01,13,04,10.90
2008,01,01,13,05,13.50
2008,01,01,13,06,8.20
2008,01,01,13,07,18.70
2008,01,01,13,08,20.10
2008,01,01,13,09,12.00
2008,01,01,13,10,16.20
2008,01,01,13,11,11.70
2008,01,01,13,12,19.40
2008,01,01,13,13,19.50
2008,01,01,13,14,15.50
2008,01,01,13,15,16.50
2008,01,01,13,16,10.70
2008,01,01,13,17,8.60
2008,01,01,13,18,13.20
2008,01,01,13,19,10.10
2008,01,01,13,20,15.40
2008,01,01,13,21,19.50
2008,01,01,13,22,17.10
2008,01,01,13,23,16.50
2008,01,01,13,24,18.40
2008,01,01,13,25,22.50
2008,01,01,13,26,13.60
2008,01,01,13,27,15.30
2008,01,01,13,28,13.40
2008,01,01,13,29,11.20
2008,01,01,13,30,17.30
2008,01,01,13,31,21.60
2008,01,01,13,32,17.40
2008,01,01,13,33,18.40
2008,01,01,13,34,11.90
2008,01,01,13,35,18.20
2008,01,01,13,36,16.30
2008,01,01,13,37,21.70
2008,01,01,13,38,21.70
2008,01,01,13,39,14.60
2008,01,01,13,40,19.60
2008,01,01,13,41,15.80
2008,01,01,13,42,14.60
2008,01,01,13,43,24.00
2008,01,01,13,44,23.80
2008,01,01,13,45,14.30
2008,01,01,13,46,21.20
2008,01,01,13,47,19.30
2008,01,01,13,48,16.90
2008,01,01,13,49,13.30
2008,01,01,13,50,10.80
2008,01,01,13,51,15.50
2008,01,01,13,52,14.20
2008,01,01,13,53,15.40
2008,01,01,13,54,13.40
2008,01,01,13,55,12.90
2008,01,01,13,56,20.40
2008,01,01,13,57,15.60
2008,01,01,13,58,20.10
2008,01,01,13,59,19.00
2008,01,01,14,00,20.40
2008,01,01,14,01,17.50
2008,01,01,14,02,18.40
2008,01,01,14,03,14.90
2008,01,01,14,04,19.20
2008,01,01,14,05,15.90
2008,01,01,14,06,17.50
2008,01,01,14,07,16.20
2008,01,01,14,08,14.20
2008,01,01,14,09,11.30
2008,01,01,14,10,9.20
2008,01,01,14,11,19.30
2008,01,01,14,12,13.40
2008,01,01,14,13,7.50
2008,01,01,14,14,8.80
2008,01,01,14,15,12.10
2008,01,01,14,16,20.40
2008,01,01,14,17,13.40
2008,01,01,14,18,5.80
2008,01,01,14,19,7.00
2008,01,01,14,20,13.00
2008,01,01,14,21,10.60
2008,01,01,14,22,9.40
2008,01,01,14,23,10.50
2008,01,01,14,24,8.90
2008,01,01,14,25,8.60
2008,01,01,14,26,7.50
2008,01,01,14,27,6.70
2008,01,01,14,28,13.30
2008,01,01,14,29,10.70
2008,01,01,14,30,5.70
2008,01,01,14,31,14.20
2008,01,01,14,32,8.60
2008,01,01,14,33,8.00
2008,01,01,14,34,15.90
2008,01,01,14,35,6.40
2008,01,01,14,36,4.30
2008,01,01,14,37,8.00
2008,01,01,14,38,8.90
2008,01,01,14,39,11.80
2008,01,01,14,40,6.40
2008,01,01,14,41,13.60
2008,01,01,14,42,7.00
2008,01,01,14,43,15.60
2008,01,01,14,44,7.70
2008,01,01,14,45,17.50
2008,01,01,14,46,16.30
2008,01,01,14,47,13.30
2008,01,01,14,48,10.20
2008,01,01,14,49,9.50
2008,01,01,14,50,6.30
2008,01,01,14,51,7.20
2008,01,01,14,52,8.50
2008,01,01,14,53,8.20
2008,01,01,14,54,17.20
2008,01,01,14,55,9.90
2008,01,01,14,56,12.00
2008,01,01,14,57,8.30
2008,01,01,14,58,7.70
2008,01,01,14,59,8.90
2008,01,01,15,00,10.80
2008,01,01,15,01,6.30
2008,01,01,15,02,8.70
2008,01,01,15,03,9.70
2008,01,01,15,04,3.70
2008,01,01,15,05,5.70
2008,01,01,15,06,6.00
2008,01,01,15,07,4.80
2008,01,01,15,08,8.50
2008,01,01,15,09,6.30
2008,01,01,15,10,5.60
2008,01,01,15,11,8.70
2008,01,01,15,12,6.80
2008,01,01,15,13,3.40
2008,01,01,15,14,7.80
2008,01,01,15,15,7.40
2008,01,01,15,16,9.60
2008,01,01,15,17,11.10
2008,01,01,15,18,7.00
2008,01,01,15,19,7.70
2008,01,01,15,20,11.60
2008,01,01,15,21,10.80
2008,01,01,15,22,7.40
2008,01,01,15,23,5.70
2008,01,01,15,24,7.20
2008,01,01,15,25,8.20
2008,01,01,15,26,11.60
2008,01,01,15,27,15.40
2008,01,01,15,28,10.20
2008,01,01,15,29,7.80
2008,01,01,15,30,7.60
2008,01,01,15,31,14.10
2008,01,01,15,32,5.40
2008,01,01,15,33,9.90
2008,01,01,15,34,12.60
2008,01,01,15,35,10.80
2008,01,01,15,36,15.50
2008,01,01,15,37,17.50
2008,01,01,15,38,8.90
2008,01,01,15,39,9.20
2008,01,01,15,40,18.90
2008,01,01,15,41,9.60
2008,01,01,15,42,13.00
2008,01,01,15,43,20.20
2008,01,01,15,44,20.20
2008,01,01,15,45,19.80
2008,01,01,15,46,11.80
2008,01,01,15,47,12.70
2008,01,01,15,48,13.80
2008,01,01,15,49,9.20
2008,01,01,15,50,16.20
2008,01,01,15,51,18.80
2008,01,01,15,52,12.90
2008,01,01,15,53,16.40
2008,01,01,15,54,14.50
2008,01,01,15,55,15.00
2008,01,01,15,56,13.00
2008,01,01,15,57,13.50
2008,01,01,15,58,20.00
2008,01,01,15,59,14.20
2008,01,01,16,00,11.30
2008,01,01,16,01,17.80
2008,01,01,16,02,18.30
2008,01,01,16,03,14.70
2008,01,01,16,04,15.00
2008,01,01,16,05,14.80
2008,01,01,16,06,10.30
2008,01,01,16,07,9.60
2008,01,01,16,08,8.90
2008,01,01,16,09,15.40
2008,01,01,16,10,9.10
2008,01,01,16,11,17.20
2008,01,01,16,12,9.00
2008,01,01,16,13,8.60
2008,01,01,16,14,13.80
2008,01,01,16,15,13.90
2008,01,01,16,16,15.80
2008,01,01,16,17,16.80
2008,01,01,16,18,9.40
2008,01,01,16,19,10.80
2008,01,01,16,20,14.60
2008,01,01,16,21,19.70
2008,01,01,16,22,15.90
2008,01,01,16,23,19.10
2008,01,01,16,24,18.10
2008,01,01,16,25,22.00
2008,01,01,16,26,21.10
2008,01,01,16,27,13.80
2008,01,01,16,28,15.20
2008,01,01,16,29,21.10
2008,01,01,16,30,19.90
2008,01,01,16,31,23.20
2008,01,01,16,32,20.90
2008,01,01,16,33,21.10
2008,01,01,16,34,21.20
2008,01,01,16,35,27.80
2008,01,01,16,36,16.10
2008,01,01,16,37,19.10
2008,01,01,16,38,24.30
2008,01,01,16,39,22.30
2008,01,01,16,40,13.20
2008,01,01,16,41,14.70
2008,01,01,16,42,23.00
2008,01,01,16,43,15.30
2008,01,01,16,44,20.00
2008,01,01,16,45,16.70
2008,01,01,16,46,16.30
2008,01,01,16,47,14.30
2008,01,01,16,48,17.50
2008,01,01,16,49,15.80
2008,01,01,16,50,13.30
2008,01,01,16,51,14.60
2008,01,01,16,52,13.80
2008,01,01,16,53,11.70
2008,01,01,16,54,12.50
2008,01,01,16,55,16.70
2008,01,01,16,56,17.90
2008,01,01,16,57,16.90
2008,01,01,16,58,18.30
2008,01,01,16,59,12.10
2008,01,01,17,00,11.90
2008,01,01,17,01,18.60
2008,01,01,17,02,20.70
2008,01,01,17,03,14.00
2008,01,01,17,04,19.90
2008,01,01,17,05,22.40
2008,01,01,17,06,15.70
2008,01,01,17,07,16.30
2008,01,01,17,08,20.90
2008,01,01,17,09,23.30
2008,01,01,17,10,19.10
2008,01,01,17,11,24.80
2008,01,01,17,12,21.30
2008,01,01,17,13,16.30
2008,01,01,17,14,16.30
2008,01,01,17,15,16.60
2008,01,01,17,16,15.20
2008,01,01,17,17,11.40
2008,01,01,17,18,10.80
2008,01,01,17,19,14.70
2008,01,01,17,20,12.10
2008,01,01,17,21,9.30
2008,01,01,17,22,8.50
2008,01,01,17,23,9.00
2008,01,01,17,24,11.60
2008,01,01,17,25,11.70
2008,01,01,17,26,10.50
2008,01,01,17,27,9.10
2008,01,01,17,28,8.90
2008,01,01,17,29,7.90
2008,01,01,17,30,8.90
2008,01,01,17,31,19.50
2008,01,01,17,32,19.00
2008,01,01,17,33,15.60
2008,01,01,17,34,19.30
2008,01,01,17,35,14.70
2008,01,01,17,36,11.00
2008,01,01,17,37,25.40
2008,01,01,17,38,23.20
2008,01,01,17,39,21.30
2008,01,01,17,40,15.20
2008,01,01,17,41,14.80
2008,01,01,17,42,12.40
2008,01,01,17,43,16.40
2008,01,01,17,44,20.90
2008,01,01,17,45,17.60